sat.trackr.live / text

‹ back to catalog

STARLINK-5013

NORAD 55492 · 2023-015AV

PAYLOAD ACTIVE UNKNOWN

§ Identity

Operator
Country
US
Launch date
2023-02-02
Launch site
AFETR
Launch vehicle
Mass (kg)
RCS (m²)

Purposes: comms

External: N2YO · Heavens-Above · Gunter

§ Orbital elements

Epoch: 2026-05-25T01:19:34.726656Z

Period
94.27 min
Inclination
43.0035°
Eccentricity
0.0001203
Mean motion
15.27575494 rev/d
Perigee alt
482.2 km
Apogee alt
483.9 km
Semi-major
6,861.2 km
B*
1.1925e-6
RAAN
268.5103°
Arg perigee
273.4350°
Mean anomaly
86.6364°
Rev number
18,227

§ Raw data

STARLINK-50131 55492U 23015AV  26145.05526304 -.00000229  00000+0  11925-5 0  99952 55492  43.0035 268.5103 0001203 273.4350  86.6364 15.27575494182279

JSON: /api/v1/satellites/55492 · /tle

For live sub-satellite position, see the globe view (requires WebGL).

§ Visibility from observer

Set your observer location to see the next 7 days of passes ≥ 10°. The values pass through the URL so the page stays shareable.

No JS? Fill the form by hand. The geolocation button needs JavaScript.